Dillon, MT

3:21 PM MST on December 08, 2016 (GMT -0700)
Dillon

Weather History for KDLN - February, 2013

Change the Weather History Date:

Wednesday, February 6, 2013

  Actual Average Record
Temperature  
Mean Temperature 31 °F 24 °F  
Max Temperature 41 °F 35 °F 59 °F (2015)
Min Temperature 20 °F 14 °F -28 °F (2014)
Degree Days  
Heating Degree Days 34    
Month to date heating degree days 185  
Since 1 July heating degree days 4585  
Cooling Degree Days 0    
Month to date cooling degree days 0  
Year to date cooling degree days 0  
Moisture  
Dew Point 17 °F    
Average Humidity 55    
Maximum Humidity 75    
Minimum Humidity 34    
Precipitation  
Precipitation 0.00 in 0.01 in 0.04 in (1959)
Month to date precipitation 0.00 0.04  
Year to date precipitation 0.18 0.32  
Snow  
Snow 0.00 in - - ()
Snow Depth 0.00 in    
Sea Level Pressure  
Sea Level Pressure 30.03 in    
Wind  
Wind Speed 11 mph (SW)    
Max Wind Speed 22 mph    
Max Gust Speed 32 mph    
T = Trace of Precipitation, MM = Missing Value Source: NWS Daily Summary

Daily Weather History Graph

Daily Weather History Graph

Search for Another Location

Airport or City:

Trip Planner

Search our weather history database for the weather conditions in past years. The results will help you decide how hot, cold, wet, or windy it might be!

Date:

Astronomy

Feb. 06, 2013 Rise Set
Actual Time 7:43 AM MST 5:45 PM MST
Civil Twilight 7:12 AM MST 6:16 PM MST
Nautical Twilight 6:38 AM MST 6:51 PM MST
Astronomical Twilight 6:03 AM MST 7:25 PM MST
Moon 4:36 AM MST (2/6) 2:02 PM MST (2/6)
Length of Visible Light 11h 03m
Length of Day
10h 01m
Waning Crescent, 16% of the Moon is Illuminated
Feb 6
Waning Crescent
Feb 10
New
Feb 17
First Quarter
Feb 25
Full
Mar 4
Last Quarter

Hourly Weather History & Observations

Time (MST) Temp. Windchill Dew Point Humidity Pressure Visibility Wind Dir Wind Speed Gust Speed Precip Events Conditions
12:53 AM 28.0 °F 16.5 °F 19.9 °F 72% 29.84 in - SSW 15.0 mph - N/A   Partly Cloudy
2:53 AM 28.0 °F 18.6 °F 19.0 °F 69% 29.90 in - SSW 10.4 mph - N/A   Mostly Cloudy
3:53 AM 30.0 °F 20.5 °F 19.9 °F 66% 29.90 in - SSW 11.5 mph - N/A   Overcast
6:53 AM 28.0 °F 17.0 °F 18.0 °F 66% 29.97 in - SW 13.8 mph - N/A   Partly Cloudy
7:53 AM 27.0 °F 18.0 °F 18.0 °F 69% 30.02 in - SW 9.2 mph - N/A   Overcast
8:53 AM 27.0 °F 19.5 °F 19.0 °F 72% 30.05 in - SSW 6.9 mph - N/A   Scattered Clouds
9:53 AM 32.0 °F 23.0 °F 19.9 °F 61% 30.03 in - SW 11.5 mph - N/A   Clear
10:53 AM 35.1 °F 26.4 °F 17.1 °F 48% 30.04 in - SW 12.7 mph - N/A   Clear
11:53 AM 37.0 °F 29.3 °F 18.0 °F 46% 30.04 in - WSW 11.5 mph - N/A   Scattered Clouds
12:53 PM 37.9 °F 29.2 °F 16.0 °F 41% 30.02 in - WSW 15.0 mph 20.7 mph N/A   Clear
1:53 PM 39.0 °F 32.8 °F 17.1 °F 41% 30.01 in - SW 9.2 mph - N/A   Partly Cloudy
2:53 PM 37.0 °F 28.5 °F 17.1 °F 44% 30.03 in - West 13.8 mph - N/A   Mostly Cloudy
3:53 PM 39.0 °F 30.6 °F 14.0 °F 36% 30.02 in - WSW 15.0 mph - N/A   Partly Cloudy
4:53 PM 36.0 °F 27.1 °F 15.1 °F 43% 30.04 in - WSW 13.8 mph - N/A   Clear
5:53 PM 32.0 °F 22.1 °F 16.0 °F 52% 30.07 in - WSW 13.8 mph - N/A   Clear
6:53 PM 28.9 °F 21.1 °F 16.0 °F 58% 30.11 in - South 8.1 mph - N/A   Clear
7:53 PM 26.1 °F 17.6 °F 15.1 °F 63% 30.14 in - South 8.1 mph - N/A   Clear
8:53 PM 26.1 °F 19.4 °F 16.0 °F 66% 30.15 in - South 5.8 mph - N/A   Clear
9:53 PM 25.0 °F 15.5 °F 15.1 °F 66% 30.14 in - South 9.2 mph - N/A   Clear
11:53 PM 24.1 °F 16.0 °F 14.0 °F 65% 30.13 in - South 6.9 mph - N/A   Clear